When you browse on this site, cookies collect data to enhance your experience and personalize the content and advertising you see.
Visit our Privacy Policy to learn more. By continuing to use the site, you agree to this use of cookies and data.
  • In Austria
  • List of Countries
  • For 7 days
  • Water Temperature
  • Satellite Maps
  • Weather Map
  • News
  • Weather Widgets
  • user-avatar
    Login

    Hourly Weather Jalalabad

    Today, 25 June, Tuesday

    Time Temperature Precipitation Wind Pressure Humidity
    00:00 +31°C° 0.5 mm 2 mps 708 mmHg 44%
    01:00 +30°C° 0.5 mm 2 mps 708 mmHg 47%
    02:00 +29°C° 0.5 mm 1 mps 708 mmHg 50%
    03:00 +29°C° 0.1 mm 1 mps 708 mmHg 50%
    04:00 +29°C° 0.1 mm 1 mps 707 mmHg 51%
    05:00 +27°C° 0.1 mm 0 mps 707 mmHg 51%
    06:00 +28°C° 0 mm 0 mps 708 mmHg 46%
    07:00 +29°C° 0 mm 0 mps 708 mmHg 41%
    08:00 +30°C° 0 mm 0 mps 708 mmHg 37%
    09:00 +33°C° 0 mm 1 mps 708 mmHg 30%
    10:00 +35°C° 0 mm 1 mps 708 mmHg 23%
    11:00 +37°C° 0 mm 2 mps 708 mmHg 16%
    12:00 +38°C° 0 mm 2 mps 707 mmHg 14%
    13:00 +39°C° 0 mm 1 mps 707 mmHg 11%
    14:00 +40°C° 0 mm 1 mps 707 mmHg 8%
    15:00 +41°C° 0 mm 1 mps 707 mmHg 8%
    16:00 +41°C° 0 mm 1 mps 706 mmHg 7%
    17:00 +42°C° 0 mm 1 mps 706 mmHg 7%
    18:00 +40°C° 0 mm 2 mps 706 mmHg 9%
    19:00 +39°C° 0 mm 2 mps 706 mmHg 11%
    20:00 +38°C° 0 mm 2 mps 706 mmHg 13%
    21:00 +37°C° 0 mm 2 mps 706 mmHg 15%
    22:00 +35°C° 0 mm 1 mps 706 mmHg 17%
    23:00 +34°C° 0 mm 1 mps 706 mmHg 20%

    Tomorrow, 26 June, Wednesday

    Time Temperature Precipitation Wind Pressure Humidity
    00:00 +33°C° 0 mm 1 mps 706 mmHg 20%
    01:00 +33°C° 0 mm 1 mps 706 mmHg 20%
    02:00 +32°C° 0 mm 1 mps 705 mmHg 20%
    03:00 +31°C° 0 mm 1 mps 705 mmHg 20%
    04:00 +31°C° 0 mm 1 mps 705 mmHg 20%
    05:00 +30°C° 0 mm 2 mps 705 mmHg 20%
    06:00 +31°C° 0 mm 2 mps 705 mmHg 18%
    07:00 +34°C° 0 mm 2 mps 705 mmHg 16%
    08:00 +35°C° 0 mm 2 mps 706 mmHg 14%
    09:00 +37°C° 0 mm 2 mps 706 mmHg 13%
    10:00 +38°C° 0 mm 2 mps 706 mmHg 12%
    11:00 +39°C° 0 mm 2 mps 706 mmHg 11%
    12:00 +40°C° 0 mm 2 mps 705 mmHg 10%
    13:00 +41°C° 0 mm 2 mps 705 mmHg 9%
    14:00 +41°C° 0 mm 2 mps 705 mmHg 8%
    15:00 +42°C° 0 mm 2 mps 704 mmHg 7%
    16:00 +42°C° 0 mm 2 mps 704 mmHg 7%
    17:00 +42°C° 0 mm 2 mps 703 mmHg 7%
    18:00 +41°C° 0 mm 2 mps 703 mmHg 9%
    19:00 +40°C° 0 mm 2 mps 703 mmHg 12%
    20:00 +38°C° 0 mm 2 mps 703 mmHg 14%
    21:00 +37°C° 0 mm 1 mps 703 mmHg 16%
    22:00 +36°C° 0 mm 1 mps 704 mmHg 18%
    23:00 +35°C° 0 mm 1 mps 704 mmHg 20%

    Day after tomorrow, 27 June, Thursday

    Time Temperature Precipitation Wind Pressure Humidity
    00:00 +35°C° 0 mm 1 mps 703 mmHg 20%
    01:00 +34°C° 0 mm 1 mps 703 mmHg 20%
    02:00 +33°C° 0 mm 1 mps 703 mmHg 20%
    03:00 +34°C° 0 mm 2 mps 703 mmHg 20%
    04:00 +32°C° 0 mm 2 mps 703 mmHg 20%
    05:00 +32°C° 0 mm 2 mps 703 mmHg 21%
    06:00 +34°C° 0 mm 2 mps 703 mmHg 18%
    07:00 +35°C° 0 mm 2 mps 703 mmHg 16%
    08:00 +36°C° 0 mm 1 mps 704 mmHg 14%
    09:00 +37°C° 0 mm 1 mps 704 mmHg 13%
    10:00 +39°C° 0 mm 1 mps 704 mmHg 12%
    11:00 +40°C° 0 mm 1 mps 704 mmHg 11%
    12:00 +41°C° 0 mm 2 mps 703 mmHg 11%
    13:00 +42°C° 0 mm 2 mps 703 mmHg 11%
    14:00 +43°C° 0 mm 3 mps 703 mmHg 11%
    15:00 +42°C° 0 mm 4 mps 702 mmHg 14%
    16:00 +40°C° 0 mm 6 mps 702 mmHg 17%
    17:00 +39°C° 0 mm 7 mps 701 mmHg 20%
    18:00 +37°C° 0 mm 5 mps 701 mmHg 21%
    19:00 +36°C° 0 mm 3 mps 701 mmHg 23%
    20:00 +34°C° 0 mm 1 mps 701 mmHg 24%
    21:00 +34°C° 0 mm 1 mps 702 mmHg 25%
    22:00 +33°C° 0 mm 1 mps 702 mmHg 26%
    23:00 +33°C° 0 mm 1 mps 702 mmHg 27%

    28 June, Friday

    Time Temperature Precipitation Wind Pressure Humidity
    00:00 +32°C° 0 mm 1 mps 702 mmHg 27%
    01:00 +32°C° 0 mm 1 mps 702 mmHg 28%
    02:00 +31°C° 0 mm 1 mps 702 mmHg 28%
    03:00 +31°C° 0 mm 1 mps 702 mmHg 28%
    04:00 +30°C° 0 mm 1 mps 702 mmHg 27%
    05:00 +30°C° 0 mm 1 mps 701 mmHg 27%
    06:00 +32°C° 0 mm 1 mps 702 mmHg 22%
    07:00 +33°C° 0 mm 1 mps 702 mmHg 18%
    08:00 +35°C° 0 mm 1 mps 703 mmHg 13%
    09:00 +37°C° 0 mm 1 mps 703 mmHg 12%
    10:00 +39°C° 0 mm 2 mps 703 mmHg 10%
    11:00 +40°C° 0 mm 2 mps 703 mmHg 8%
    12:00 +41°C° 0 mm 2 mps 703 mmHg 8%
    13:00 +42°C° 0 mm 1 mps 702 mmHg 7%
    14:00 +43°C° 0 mm 1 mps 702 mmHg 7%
    15:00 +43°C° 0 mm 2 mps 702 mmHg 7%
    16:00 +43°C° 0 mm 2 mps 702 mmHg 7%
    17:00 +45°C° 0 mm 3 mps 702 mmHg 7%
    18:00 +43°C° 0 mm 3 mps 702 mmHg 12%
    19:00 +40°C° 0 mm 3 mps 702 mmHg 17%
    20:00 +38°C° 0 mm 3 mps 702 mmHg 23%
    21:00 +37°C° 0 mm 2 mps 702 mmHg 24%
    22:00 +36°C° 0 mm 2 mps 702 mmHg 25%
    23:00 +35°C° 0 mm 1 mps 703 mmHg 26%

    29 June, Saturday

    Time Temperature Precipitation Wind Pressure Humidity
    00:00 +34°C° 0 mm 1 mps 702 mmHg 24%
    01:00 +34°C° 0 mm 1 mps 702 mmHg 22%
    02:00 +34°C° 0 mm 2 mps 702 mmHg 21%
    03:00 +34°C° 0 mm 2 mps 702 mmHg 20%
    04:00 +32°C° 0 mm 1 mps 702 mmHg 20%
    05:00 +31°C° 0 mm 1 mps 702 mmHg 20%
    06:00 +33°C° 0 mm 1 mps 702 mmHg 17%
    07:00 +36°C° 0 mm 2 mps 702 mmHg 15%
    08:00 +38°C° 0 mm 2 mps 703 mmHg 12%
    09:00 +39°C° 0 mm 2 mps 703 mmHg 11%
    10:00 +40°C° 0 mm 2 mps 703 mmHg 10%
    11:00 +42°C° 0 mm 2 mps 703 mmHg 9%
    12:00 +42°C° 0 mm 2 mps 702 mmHg 9%
    13:00 +43°C° 0 mm 1 mps 702 mmHg 8%
    14:00 +44°C° 0 mm 1 mps 702 mmHg 8%
    15:00 +45°C° 0 mm 2 mps 701 mmHg 8%
    16:00 +46°C° 0 mm 3 mps 701 mmHg 9%
    17:00 +46°C° 0 mm 3 mps 701 mmHg 9%
    18:00 +44°C° 0 mm 3 mps 701 mmHg 12%
    19:00 +43°C° 0 mm 3 mps 701 mmHg 16%
    20:00 +40°C° 0 mm 2 mps 701 mmHg 19%
    21:00 +40°C° 0 mm 2 mps 702 mmHg 19%
    22:00 +39°C° 0 mm 2 mps 702 mmHg 20%
    23:00 +37°C° 0 mm 1 mps 702 mmHg 21%

    30 June, Sunday

    Time Temperature Precipitation Wind Pressure Humidity
    00:00 +36°C° 0 mm 1 mps 702 mmHg 21%
    01:00 +36°C° 0 mm 1 mps 702 mmHg 21%
    02:00 +35°C° 0 mm 1 mps 701 mmHg 21%
    03:00 +34°C° 0 mm 1 mps 701 mmHg 21%
    04:00 +34°C° 0 mm 1 mps 701 mmHg 21%
    05:00 +33°C° 0 mm 1 mps 701 mmHg 22%
    06:00 +35°C° 0 mm 1 mps 701 mmHg 19%
    07:00 +36°C° 0 mm 1 mps 702 mmHg 17%
    08:00 +39°C° 0 mm 1 mps 702 mmHg 15%
    09:00 +40°C° 0 mm 1 mps 702 mmHg 14%
    10:00 +41°C° 0 mm 1 mps 702 mmHg 13%
    11:00 +43°C° 0 mm 1 mps 702 mmHg 12%
    12:00 +44°C° 0 mm 1 mps 702 mmHg 12%
    13:00 +44°C° 0 mm 1 mps 702 mmHg 11%
    14:00 +46°C° 0 mm 2 mps 701 mmHg 11%
    15:00 +46°C° 0 mm 2 mps 701 mmHg 11%
    16:00 +47°C° 0 mm 3 mps 701 mmHg 11%
    17:00 +48°C° 0 mm 4 mps 701 mmHg 11%
    18:00 +45°C° 0 mm 4 mps 701 mmHg 13%
    19:00 +44°C° 0 mm 3 mps 701 mmHg 16%
    20:00 +42°C° 0 mm 3 mps 701 mmHg 18%
    21:00 +40°C° 0 mm 2 mps 701 mmHg 19%
    22:00 +39°C° 0 mm 2 mps 702 mmHg 21%
    23:00 +37°C° 0 mm 1 mps 702 mmHg 22%
    Show more